Terminal Aerodrome Forecast
Issued by NWS

Home | Current Version | Previous Version | Text Only | Print | Product List | Glossary On
Versions: 1 2 3 4 5 6 7 8 9 10 11 12 13 14 15
000
FTUS45 KVEF 010529
TAFEED
TAF
KEED 010529Z 0106/0206 22007KT P6SM OVC200
     FM011200 17010KT P6SM VCTS SCT100CB BKN150
     FM011800 20010KT P6SM VCTS SCT100CB BKN150
     FM020300 VRB06KT P6SM FEW100 BKN150=

USA.gov is the U.S. government's official web portal to all federal, state and local government web resources and services.